Location: Maignaut
(43.8886°N, 0.4051°E)
Time: 09:09:49
(UTC+00:00)

Cosmos 372 Rocket - Pass Details

Date: 27 February 2020
Orbit: 738 x 768 km, 74.1° (Epoch: 03 April)

Event Time Altitude Azimuth Distance (km) Brightness Sun altitude
Rises 20:11:31 0° 337° (NNW) 3,245 7.8 -27.2°
Reaches altitude 10° 20:13:54 10° 335° (NNW) 2,313 7.0 -27.7°
Enters shadow 20:19:05 70° 257° (WSW) 812 4.1 -28.5°
